629  
ASUS42 KTAE 051203  
RWRTAE  
RWRTAE  
NORTH FLORIDA/SOUTH ALABAMA/SOUTHWEST GEORGIA WEATHER ROUNDUP  
NATIONAL WEATHER SERVICE TALLAHASSEE FLORIDA  
800 AM EDT TUE JUL 05 2022  
 
NOTE: "FAIR" INDICATES FEW OR NO CLOUDS BELOW 12,000 FEET WITH NO  
SIGNIFICANT WEATHER AND/OR S TO VISIBILITY
.  
 
!FLZ017-115-028-034-025-051300   
..NORTH FLORIDA
 
 
 
CITY SKY/WX TMP DP RH WIND PRES REMARKS
 
TALL INTL ARPT MOSUNNY 75 74 96 CALM 30.09R  
FSU LOVE BLDG NOT AVBL  
APALACHICOLA MOSUNNY 78 77 96 N3 30.09R  
PERRY NOT AVBL  
CROSS CITY SUNNY 78 75 92 S3 30.09R  
JACKSONVILLE PTSUNNY 80 75 84 S8 30.08R  

 
 
!FLZ112-006-005-002-011-051300   
..FLORIDA PANHANDLE
 
 
 
CITY SKY/WX TMP DP RH WIND PRES REMARKS
 
MARIANNA SUNNY 75 75 100 CALM 30.09R  
BONIFAY NOT AVBL  
PANAMA CITY NW FOG 75 75 100 CALM 30.09R VSB 1/4  
TYNDALL AFB MOSUNNY 79 75 87 CALM 30.08R  
TYND DRONE APT FAIR 80 77 91 E3 30.06R  
DE FUNIAK SPR FAIR 75 74 95 CALM 30.11R  
EGLIN AFB SUNNY 77 74 91 CALM 30.07R  
DESTIN SUNNY 81 76 84 NE3 30.09R  
HURLBURT SUNNY 76 74 93 NE3 30.08R  
CRESTVIEW MOSUNNY 75 74 96 CALM 30.11R FOG  
PENSACOLA SUNNY 79 78 97 NE5 30.09R FOG  

 
 
!ALZ063-066-051300   
..SOUTH ALABAMA
 
 
 
CITY SKY/WX TMP DP RH WIND PRES REMARKS
 
DOTHAN SUNNY 77 77 100 CALM 30.13R FOG  
OZARK CAIRNS SUNNY 75 74 99 CALM 30.09R  
FT RUCKER HELI MOSUNNY 74 74 98 CALM 30.14R  
RUCKER HELI 3 N/A 76 75 99 N3 30.09R  
RUCKER HELI 2 FAIR 75 74 99 CALM 30.08R  
FLORALA APT SUNNY 77 73 87 CALM 30.12R  
ANDALUSIA NOT AVBL  
TROY SUNNY 76 71 85 CALM 30.12R  
EUFALA NOT AVBL  
MOBILE MOSUNNY 79 76 90 CALM 30.09R FOG  

 
 
!GAZ120>161-051300   
..SOUTHWEST AND SOUTH CENTRAL GEORGIA
 
 
 
CITY SKY/WX TMP DP RH WIND PRES REMARKS
 
THOMASVILLE FAIR 73 73 100 CALM 30.10S  
BAINBRIDGE SUNNY 77 75 95 W3 30.10S  
MOODY AFB SUNNY 80 74 81 SW5 30.07S  
VALDOSTA SUNNY 80 75 84 CALM 30.09R  
MOULTRIE SUNNY 73 73 100 CALM 30.10R  
BLAKELY FOG 73 72 94 CALM 30.10R VSB 1/4  
ALBANY SUNNY 76 74 93 W3 30.10R  
TIFTON N/A 78 74 88 CALM 30.09R  
FITZGERALD FAIR 77 75 93 CALM 30.09S  
CORDELE NOT AVBL  
AMERICUS NOT AVBL  
HOMERVILLE FOG 75 74 96 CALM 30.08S VSB 1/4  

 
 
!GMZ750-755-770-775-051300   
..COASTAL AND BUOY OBS
 
 
 
STATION/POSITION TIME TEMP WIND PRES VSBY WAVE
 
AIR SEA DIR/SP/G HT/PER  
(UTC) (F) (DEG/KT/KT) (MB) (MI) (FT/S)  
KEATON BEACH 1100 78 90/ 4/ 4 1018.3R  
CEDAR KEY 1100 82 130/ 9/ 11 1018.4R  
C TOWER 1100 78 50/ 8/ 10 1018.9R  
APALACHICOLA BUO 1150 84 40/ 4/ 6 N/A 1  
PANAMA CITY BUOY 1140 85 86 360/ 4/ 4 1019.0R  
MOBILE BUOY 1150 81 200/ 12/ 14 N/A  
ORANGE BCH AL BU 1140 84 230/ 4/ 4 N/A  

 
 
 
CLICK HERE TO GO TO PREVIOUS BULLETINS.

The Nexlab FL Page
The Nexlab GA Page
The Nexlab AL Page Main Text Page